This demonstration page uses our WeatherBlox Daily Observations layout. Learn more.

40.92945, -100.16068

Hourly Observations for August 7, 2018

Temp ( °F °C ) Dew Point ( °F °C ) Humidity (%) Winds ( mph kmh ) Pressure ( in mb ) Visibility ( mi km ) Precip ( " mm )
12:15 am 00:15 Clear 67 19.5 65 18.5 94 94 Calm 30 1016 7 11.26538 0 0
12:35 am 00:35 Clear with Mist and Fog 67 19.2 65 18.2 94 94 Calm 30 1016 5 8.0467 0 0
12:55 am 00:55 Clear with Mist and Fog 66 18.8 64 17.9 95 95 N 6 9 30 1016 3 4.82802 0 0
1:15 am 01:15 Clear with Mist and Fog 66 19 65 18.1 95 95 Calm 30 1016 2.5 4.02335 0 0
1:35 am 01:35 Clear with Mist and Fog 65 18.5 64 17.7 95 95 NE 5 7 30 1016 2.5 4.02335 0 0
1:55 am 01:55 Partly Cloudy with Mist and Fog 65 18.6 64 18 96 96 NE 5 7 30 1016 3 4.82802 0 0
2:15 am 02:15 Mostly Cloudy with Mist and Fog 65 18.5 64 17.7 95 95 Calm 30 1016 3 4.82802 0 0
2:35 am 02:35 Clear with Mist and Fog 65 18.3 64 17.6 96 96 Calm 30 1016 2.5 4.02335 0 0
2:55 am 02:55 Clear with Mist and Fog 64 18 63 17.3 96 96 NNE 3 6 30 1016 2.5 4.02335 0 0
3:15 am 03:15 Mostly Cloudy with Mist and Fog 64 17.7 63 17 96 96 N 6 9 30 1016 1.75 2.816345 0 0
3:35 am 03:35 Mostly Cloudy with Mist and Fog 64 17.7 63 17 96 96 N 3 6 30 1016 3 4.82802 0 0
3:55 am 03:55 Mostly Cloudy with Mist and Fog 64 18 63 17.3 96 96 N 3 6 30 1016 4 6.43736 0 0
4:15 am 04:15 Partly Cloudy with Mist and Fog 64 18 63 17.2 95 95 SW 5 7 30 1016 5 8.0467 0 0
4:35 am 04:35 Clear with Mist and Fog 64 17.5 62 16.8 96 96 W 5 7 30 1016 3 4.82802 0 0
4:55 am 04:55 Partly Cloudy with Mist and Fog 64 17.5 62 16.7 95 95 NW 7 11 30 1016 3 4.82802 0 0
5:15 am 05:15 Cloudy with Fog 64 17.5 62 16.8 96 96 NW 6 9 30 1016 0.25 0.402335 0 0
5:35 am 05:35 Cloudy with Fog 64 17.6 63 17 96 96 WNW 5 7 30 1016 0.25 0.402335 0 0
5:55 am 05:55 Cloudy with Fog 64 17.7 63 17 96 96 NW 5 7 30 1016 0.25 0.402335 0 0
6:15 am 06:15 Cloudy with Fog 64 17.8 63 17.1 96 96 WNW 5 7 30 1016 0.25 0.402335 0 0
6:35 am 06:35 Cloudy with Fog 64 17.8 63 17.1 96 96 WNW 3 6 30 1016 0.25 0.402335 0 0
6:55 am 06:55 Cloudy with Fog 64 18 63 17.2 95 95 NNW 3 6 30 1016 5 8.0467 0 0
7:15 am 07:15 Cloudy with Fog 65 18.3 64 17.6 96 96 W 3 6 30 1016 5 8.0467 0 0
7:35 am 07:35 Cloudy with Fog 65 18.6 64 18 96 96 WNW 3 6 30 1016 5 8.0467 0 0
7:55 am 07:55 Cloudy with Fog 66 19 65 18.3 96 96 NW 6 9 30 1016 0.25 0.402335 0 0
8:15 am 08:15 Cloudy with Fog 66 19.1 65 18.4 96 96 WNW 6 9 30 1016 0.25 0.402335 0 0
8:35 am 08:35 Cloudy with Fog 67 19.3 65 18.6 96 96 W 3 6 30.03 1017 0.5 0.80467 0 0
8:55 am 08:55 Cloudy with Fog 67 19.5 66 18.8 96 96 WNW 6 9 30 1016 0.5 0.80467 0 0
9:15 am 09:15 Cloudy with Mist and Fog 68 19.9 67 19.2 96 96 WNW 7 11 30.03 1017 3 4.82802 0 0
9:35 am 09:35 Cloudy with Mist and Fog 69 20.3 67 19.6 96 96 WNW 8 13 30 1016 5 8.0467 0 0
9:55 am 09:55 Cloudy with Mist and Fog 69 20.5 67 19.7 95 95 NW 7 11 29.97 1015 5 8.0467 0 0
10:15 am 10:15 Cloudy with Mist and Fog 70 21.3 68 19.8 91 91 WNW 5 7 30 1016 5 8.0467 0 0
10:35 am 10:35 Cloudy 72 22 67 19.5 86 86 W 5 7 30 1016 7 11.26538 0 0
10:55 am 10:55 Cloudy 72 22.4 67 19.4 83 83 WNW 5 7 29.97 1015 7 11.26538 0 0
11:15 am 11:15 Mostly Cloudy 73 22.8 67 19.6 82 82 W 6 9 30 1016 7 11.26538 0 0
11:35 am 11:35 Partly Cloudy 74 23.6 67 19.6 78 78 W 6 9 29.97 1015 10 16.0934 0 0
11:55 am 11:55 Sunny 76 24.6 67 19.6 74 74 WNW 5 7 29.94 1014 10 16.0934 0 0
12:15 pm 12:15 Sunny 78 25.5 67 19.7 70 70 W 3 6 29.94 1014 10 16.0934 0 0
12:35 pm 12:35 Sunny 79 26.2 66 18.8 64 64 N 5 7 29.94 1014 10 16.0934 0 0
12:55 pm 12:55 Sunny 80 26.5 64 17.7 59 59 NNW 5 7 29.91 1013 10 16.0934 0 0
1:15 pm 13:15 Sunny 81 27.1 65 18.6 60 60 Calm 29.91 1013 10 16.0934 0 0
1:35 pm 13:35 Sunny 81 27.3 64 17.9 57 57 Calm 29.88 1012 10 16.0934 0 0
1:55 pm 13:55 Sunny 82 27.5 62 16.4 51 51 Calm 29.88 1012 10 16.0934 0 0
2:15 pm 14:15 Sunny 83 28.2 63 17.4 52 52 SSW 5 7 29.88 1012 10 16.0934 0 0
2:35 pm 14:35 Sunny 83 28.5 63 17.4 51 51 SSW 5 7 29.88 1012 10 16.0934 0 0
2:55 pm 14:55 Sunny 83 28.4 62 16.9 50 50 W 3 6 29.88 1012 10 16.0934 0 0
3:15 pm 15:15 Sunny 84 28.7 59 14.9 43 43 Calm 29.88 1012 10 16.0934 0 0
3:35 pm 15:35 Sunny 84 29 58 14.3 41 41 Calm 29.88 1012 10 16.0934 0 0
3:55 pm 15:55 Sunny 85 29.3 61 15.9 44 44 S 3 6 29.88 1012 10 16.0934 0 0
4:15 pm 16:15 Sunny 85 29.5 58 14.5 40 40 SW 5 7 29.88 1012 10 16.0934 0 0
4:35 pm 16:35 Sunny 85 29.7 54 12.4 34 34 Calm 29.88 1012 10 16.0934 0 0
4:55 pm 16:55 Sunny 86 29.9 60 15.5 42 42 SSW 5 7 29.88 1012 10 16.0934 0 0
5:15 pm 17:15 Sunny 86 29.9 56 13.5 37 37 SW 5 7 29.88 1012 10 16.0934 0 0
5:35 pm 17:35 Sunny 86 29.8 57 13.8 38 38 S 5 7 29.85 1011 10 16.0934 0 0
5:55 pm 17:55 Sunny 85 29.5 59 15.2 42 42 S 6 9 29.85 1011 10 16.0934 0 0
6:15 pm 18:15 Sunny 84 29.1 63 17.3 49 49 SSE 8 13 29.85 1011 10 16.0934 0 0
6:35 pm 18:35 Sunny 84 29 64 18 51 51 S 8 13 29.85 1011 10 16.0934 0 0
6:55 pm 18:55 Sunny 83 28.6 64 17.7 52 52 SSE 8 13 29.85 1011 10 16.0934 0 0
7:15 pm 19:15 Sunny 82 28 64 17.7 54 54 SSE 8 13 29.85 1011 10 16.0934 0 0
7:35 pm 19:35 Sunny 82 27.5 65 18.4 58 58 SSE 8 13 29.85 1011 10 16.0934 0 0
7:55 pm 19:55 Sunny 79 26.3 65 18.5 62 62 SE 6 9 29.88 1012 10 16.0934 0 0
8:15 pm 20:15 Sunny 79 26.3 65 18.4 62 62 SE 6 9 29.88 1012 10 16.0934 0 0
8:35 pm 20:35 Sunny 78 25.6 65 18.6 65 65 SE 6 9 29.88 1012 10 16.0934 0 0
8:55 pm 20:55 Clear 77 25.2 65 18.6 67 67 SE 5 7 29.88 1012 10 16.0934 0 0
9:15 pm 21:15 Clear 76 24.2 66 19.1 73 73 SE 6 9 29.91 1013 10 16.0934 0 0
9:35 pm 21:35 Clear 76 24.2 67 19.3 74 74 SE 6 9 29.91 1013 10 16.0934 0 0
9:55 pm 21:55 Clear 73 22.5 67 19.2 82 82 S 8 13 29.94 1014 10 16.0934 0 0
10:15 pm 22:15 Clear 71 21.9 66 18.9 83 83 S 5 7 29.94 1014 10 16.0934 0 0
10:35 pm 22:35 Clear 71 21.5 65 18.6 84 84 S 8 13 29.94 1014 10 16.0934 0 0
10:55 pm 22:55 Clear 70 21.2 65 18.3 84 84 SSW 6 9 29.94 1014 10 16.0934 0 0
11:15 pm 23:15 Clear 71 21.6 65 18.2 81 81 SSE 3 6 29.94 1014 10 16.0934 0 0
11:35 pm 23:35 Clear 71 21.9 65 18.5 81 81 SSE 7 11 29.94 1014 10 16.0934 0 0
11:55 pm 23:55 Clear 72 22.1 65 18.5 80 80 SSE 5 7 29.94 1014 10 16.0934 0 0

Powered by AerisWeather